Location: Bergnerzell
(49.1816°N, 10.2565°E)
Time: 08:56:04
(UTC+00:00)

Meteor 1-24 Rocket - Pass Details

Date: 23 May 2024
Orbit: 789 x 927 km, 81.3° (Epoch: 15 June)

Event Time Altitude Azimuth Distance (km) Brightness Sun altitude
Exits shadow 02:02:47 - 189° (S) 2,699 5.8 -10.9°
Reaches altitude 10° 02:02:59 10° 189° (S) 2,623 5.7 -10.9°
Maximum altitude 02:09:01 88° 103° (ESE) 933 3.9 -10.3°
Drops below altitude 10° 02:15:03 10° 12° (NNE) 2,617 7.3 -9.6°
Sets 02:17:30 0° 13° (NNE) 3,550 8.1 -9.3°
